Tracking 22124 objects as of 23-Jan-2021
HD Live streaming from Space Station
objects crossing your sky now

ESAIL

Track ESAIL now!
10-day predictions


NORAD ID: 46273
Int'l Code: 2020-061B
Perigee: 521.4 km
Apogee: 532.3 km
Inclination: 97.5 °
Period: 95.0 minutes
Semi major axis: 6897 km
RCS: Unknown
Launch date: September 3, 2020
Source: Canada (CA)
Launch site: FRENCH GUIANA (FRGUI)
aabbcc
Your satellite tracking list
Your tracking list is empty




NASA's NSSDC Master Catalog

Two Line Element Set (TLE):
1 46273U 20061B   21023.18991599  .00000623  00000-0  36453-4 0  9996
2 46273  97.4539  99.6821 0007914  97.3484 262.8649 15.15409215 21511
Source of the keplerian elements: AFSPC